HOECHSTEN Weather Reports


time (UTC)temp
F
wind
direction
speed
knots
gust
knots
rain 1hr
in
rain 24hr
in
rain mn
in
humidity
%
barometer
mb
20260507190212 50 101 10.4 0.0 0.00 0.00 0.05 76 1012.8
20260507183210 51 16 5.2 0.0 0.00 0.00 0.05 75 1012.6
20260507180210 53 32 7.0 0.0 0.00 0.00 0.05 73 1012.4
20260507173209 53 19 6.1 0.0 0.00 0.00 0.05 71 1012.2
20260507170210 54 328 10.4 0.0 0.00 0.00 0.05 70 1012.0
20260507163209 55 332 7.0 0.0 0.00 0.00 0.05 68 1012.1
20260507160211 56 320 7.0 0.0 0.00 0.00 0.05 66 1012.0
20260507153210 57 323 7.8 0.0 0.00 0.00 0.05 66 1012.2
20260507150210 55 331 5.2 0.0 0.00 0.00 0.05 71 1012.2
20260507143212 55 246 8.7 0.0 0.00 0.00 0.05 72 1012.2
20260507140210 53 335 11.3 0.0 0.00 0.00 0.05 75 1012.2
20260507133210 55 326 9.6 0.0 0.00 0.00 0.05 73 1012.4
20260507130210 55 240 13.9 0.0 0.00 0.00 0.05 72 1012.1
20260507123210 53 245 10.4 0.0 0.00 0.00 0.05 72 1012.2
20260507120211 53 213 13.0 0.0 0.00 0.00 0.05 74 1012.2
20260507113210 50 341 7.8 0.0 0.00 0.00 0.05 70 1012.4
20260507110210 49 223 7.0 0.0 0.00 0.00 0.05 60 1012.5
20260507103216 48 215 8.7 0.0 0.00 0.00 0.05 54 1012.7
20260507100212 47 216 9.6 0.0 0.00 0.00 0.05 56 1012.6
20260507093210 47 239 9.6 0.0 0.00 0.00 0.05 57 1012.3
20260507090211 46 186 7.8 0.0 0.00 0.00 0.05 57 1012.2
20260507083212 46 195 8.7 0.0 0.00 0.00 0.05 58 1011.9
20260507080211 44 204 7.8 0.0 0.00 0.00 0.05 58 1011.8
20260507073212 44 180 9.6 0.0 0.00 0.00 0.05 58 1011.5
20260507070212 44 200 8.7 0.0 0.00 0.00 0.05 59 1011.2
20260507063211 44 190 13.0 0.0 0.00 0.00 0.05 59 1010.9
20260507060211 43 209 11.3 0.0 0.00 0.00 0.05 59 1010.7
20260507053211 43 252 14.8 0.0 0.00 0.00 0.04 59 1010.4
20260507050213 43 207 11.3 0.0 0.00 0.00 0.01 59 1009.9
20260507043211 43 202 16.5 0.0 0.00 0.00 0.00 59 1009.5
20260507040216 43 211 13.0 0.0 0.00 0.00 0.00 59 1009.3
20260507033211 43 203 15.6 0.0 0.00 0.00 0.00 59 1009.1
20260507030211 43 192 13.0 0.0 0.00 0.00 0.00 59 1009.0
20260507023211 43 211 13.0 0.0 0.00 0.00 0.00 59 1009.0
20260507020211 43 231 10.4 0.0 0.00 0.00 0.00 59 1009.0
20260507013212 43 240 9.6 0.0 0.00 0.00 0.00 59 1008.9
20260507010211 43 238 11.3 0.0 0.00 0.00 0.00 59 1008.8
20260507003209 44 202 12.2 0.0 0.00 0.00 0.00 59 1008.5
20260507000209 44 202 13.9 0.0 0.00 0.00 0.00 60 1008.4
20260506233209 44 199 8.7 0.0 0.00 0.00 0.00 60 1008.2
20260506230209 44 225 10.4 0.0 0.00 0.00 0.00 60 1008.3
20260506223209 44 200 8.7 0.0 0.00 0.00 0.00 60 1008.2
20260506213209 44 248 11.3 0.0 0.00 0.00 0.28 59 1008.0
20260506210210 45 198 11.3 0.0 0.00 0.00 0.28 60 1008.0
20260506203210 45 211 8.7 0.0 0.00 0.00 0.28 60 1007.7
20260506200210 45 196 11.3 0.0 0.00 0.00 0.28 60 1007.4
20260506193215 45 200 10.4 0.0 0.00 0.00 0.28 60 1007.1